| time (UTC) | temp F | wind direction | speed MPH | gust MPH | rain 1hr in | rain 24hr in | rain mn in | humidity % | barometer mb |
| 20260504035053 | 52 | 0 | 0.0 | 9.0 | 0.00 | 0.00 | 0.00 | 58 | 1004.9 |
| 20260504034609 | 52 | 0 | 2.0 | 10.0 | 0.00 | 0.00 | 0.00 | 57 | 1004.9 |
| 20260504034051 | 53 | 276 | 2.0 | 12.0 | 0.00 | 0.00 | 0.00 | 57 | 1005.0 |
| 20260504033551 | 53 | 285 | 3.0 | 12.0 | 0.00 | 0.00 | 0.00 | 55 | 1005.1 |
| 20260504033054 | 53 | 300 | 1.0 | 11.0 | 0.00 | 0.00 | 0.00 | 53 | 1005.0 |
| 20260504032553 | 53 | 288 | 3.0 | 11.0 | 0.00 | 0.00 | 0.00 | 52 | 1005.1 |
| 20260504032052 | 53 | 292 | 1.0 | 10.0 | 0.00 | 0.00 | 0.00 | 51 | 1005.0 |
| 20260504031555 | 53 | 282 | 0.0 | 9.0 | 0.00 | 0.00 | 0.00 | 50 | 1005.0 |
| 20260504031050 | 53 | 0 | 2.0 | 10.0 | 0.00 | 0.00 | 0.00 | 50 | 1005.0 |
| 20260504030549 | 54 | 0 | 2.0 | 10.0 | 0.00 | 0.00 | 0.00 | 49 | 1005.1 |
| 20260504030054 | 54 | 0 | 1.0 | 11.0 | 0.00 | 0.00 | 0.00 | 48 | 1005.1 |
| 20260504025550 | 54 | 270 | 2.0 | 11.0 | 0.00 | 0.00 | 0.00 | 47 | 1005.1 |
| 20260504025051 | 54 | 0 | 3.0 | 11.0 | 0.00 | 0.00 | 0.00 | 46 | 1005.1 |
| 20260504024553 | 54 | 259 | 1.0 | 8.0 | 0.00 | 0.00 | 0.00 | 45 | 1005.0 |
| 20260504024052 | 54 | 260 | 1.0 | 8.0 | 0.00 | 0.00 | 0.00 | 45 | 1005.1 |
| 20260504023552 | 54 | 0 | 1.0 | 9.0 | 0.00 | 0.00 | 0.00 | 44 | 1005.2 |
| 20260504023051 | 54 | 0 | 2.0 | 9.0 | 0.00 | 0.00 | 0.00 | 43 | 1005.2 |
| 20260504022554 | 54 | 0 | 0.0 | 8.0 | 0.00 | 0.00 | 0.00 | 42 | 1005.3 |
| 20260504022050 | 54 | 302 | 2.0 | 8.0 | 0.00 | 0.00 | 0.00 | 42 | 1005.3 |
| 20260504021554 | 54 | 0 | 1.0 | 5.0 | 0.00 | 0.00 | 0.00 | 42 | 1005.3 |
| 20260504021054 | 54 | 303 | 0.0 | 5.0 | 0.00 | 0.00 | 0.00 | 42 | 1005.3 |
| 20260504020551 | 55 | 305 | 0.0 | 4.0 | 0.00 | 0.00 | 0.00 | 41 | 1005.3 |
| 20260504020051 | 55 | 305 | 0.0 | 4.0 | 0.00 | 0.00 | 0.00 | 41 | 1005.2 |
| 20260504015551 | 55 | 0 | 1.0 | 8.0 | 0.00 | 0.00 | 0.00 | 41 | 1005.2 |
| 20260504015051 | 55 | 0 | 1.0 | 8.0 | 0.00 | 0.00 | 0.00 | 41 | 1005.2 |
| 20260504014619 | 55 | 0 | 1.0 | 10.0 | 0.00 | 0.00 | 0.00 | 42 | 1005.2 |
| 20260504014048 | 55 | 0 | 1.0 | 10.0 | 0.00 | 0.00 | 0.00 | 41 | 1005.2 |
| 20260504013552 | 55 | 298 | 2.0 | 11.0 | 0.00 | 0.00 | 0.00 | 41 | 1005.2 |
| 20260504013055 | 55 | 0 | 2.0 | 11.0 | 0.00 | 0.00 | 0.00 | 42 | 1005.2 |
| 20260504012549 | 55 | 275 | 2.0 | 11.0 | 0.00 | 0.00 | 0.00 | 41 | 1005.3 |
| 20260504012049 | 55 | 300 | 1.0 | 11.0 | 0.00 | 0.00 | 0.00 | 40 | 1005.3 |
| 20260504011559 | 55 | 277 | 3.0 | 9.0 | 0.00 | 0.00 | 0.00 | 39 | 1005.3 |
| 20260504011050 | 55 | 323 | 2.0 | 11.0 | 0.00 | 0.00 | 0.00 | 37 | 1005.2 |
| 20260504010549 | 55 | 336 | 2.0 | 11.0 | 0.00 | 0.00 | 0.00 | 37 | 1005.2 |
| 20260504010058 | 56 | 312 | 1.0 | 11.0 | 0.00 | 0.00 | 0.00 | 36 | 1005.0 |
| 20260504005552 | 56 | 281 | 0.0 | 10.0 | 0.00 | 0.00 | 0.00 | 36 | 1005.0 |
| 20260504005052 | 56 | 0 | 2.0 | 10.0 | 0.00 | 0.00 | 0.00 | 36 | 1004.9 |
| 20260504004556 | 56 | 275 | 1.0 | 8.0 | 0.00 | 0.00 | 0.00 | 35 | 1004.8 |
| 20260504004051 | 56 | 260 | 2.0 | 8.0 | 0.00 | 0.00 | 0.00 | 35 | 1004.9 |
| 20260504003551 | 56 | 0 | 1.0 | 11.0 | 0.00 | 0.00 | 0.00 | 35 | 1004.8 |
| 20260504003059 | 57 | 347 | 2.0 | 11.0 | 0.00 | 0.00 | 0.00 | 34 | 1004.8 |
| 20260504002552 | 57 | 315 | 2.0 | 11.0 | 0.00 | 0.00 | 0.00 | 33 | 1004.8 |
| 20260504002052 | 57 | 285 | 3.0 | 10.0 | 0.00 | 0.00 | 0.00 | 33 | 1004.8 |
| 20260504001601 | 57 | 327 | 1.0 | 12.0 | 0.00 | 0.00 | 0.00 | 32 | 1004.7 |
| 20260504001053 | 57 | 265 | 2.0 | 12.0 | 0.00 | 0.00 | 0.00 | 31 | 1004.7 |
| 20260504000553 | 57 | 293 | 3.0 | 9.0 | 0.00 | 0.00 | 0.00 | 31 | 1004.7 |
| 20260504000053 | 58 | 0 | 1.0 | 8.0 | 0.00 | 0.00 | 0.00 | 30 | 1004.7 |
| 20260503235553 | 58 | 306 | 2.0 | 8.0 | 0.00 | 0.00 | 0.00 | 29 | 1004.7 |
| 20260503235055 | 58 | 317 | 2.0 | 8.0 | 0.00 | 0.00 | 0.00 | 28 | 1004.7 |
| 20260503234554 | 58 | 300 | 1.0 | 6.0 | 0.00 | 0.00 | 0.00 | 28 | 1004.7 |
| 20260503234052 | 58 | 344 | 0.0 | 6.0 | 0.00 | 0.00 | 0.00 | 27 | 1004.7 |
| 20260503233552 | 58 | 321 | 1.0 | 8.0 | 0.00 | 0.00 | 0.00 | 27 | 1004.7 |
| 20260503233057 | 58 | 0 | 1.0 | 8.0 | 0.00 | 0.00 | 0.00 | 27 | 1004.7 |
| 20260503232553 | 58 | 283 | 2.0 | 8.0 | 0.00 | 0.00 | 0.00 | 27 | 1004.7 |
| 20260503232056 | 58 | 299 | 1.0 | 8.0 | 0.00 | 0.00 | 0.00 | 27 | 1004.6 |
| 20260503231551 | 58 | 0 | 0.0 | 7.0 | 0.00 | 0.00 | 0.00 | 26 | 1004.6 |
| 20260503231052 | 59 | 283 | 2.0 | 7.0 | 0.00 | 0.00 | 0.00 | 26 | 1004.7 |
| 20260503230552 | 59 | 293 | 0.0 | 6.0 | 0.00 | 0.00 | 0.00 | 26 | 1004.7 |
| 20260503230058 | 59 | 317 | 2.0 | 10.0 | 0.00 | 0.00 | 0.00 | 25 | 1004.7 |
| 20260503225551 | 59 | 295 | 1.0 | 10.0 | 0.00 | 0.00 | 0.00 | 25 | 1004.7 |
| 20260503225051 | 60 | 304 | 2.0 | 14.0 | 0.00 | 0.00 | 0.00 | 24 | 1004.7 |
| 20260503224551 | 60 | 344 | 3.0 | 14.0 | 0.00 | 0.00 | 0.00 | 24 | 1004.7 |
| 20260503224050 | 60 | 312 | 5.0 | 14.0 | 0.00 | 0.00 | 0.00 | 24 | 1004.7 |
| 20260503223553 | 60 | 324 | 2.0 | 11.0 | 0.00 | 0.00 | 0.00 | 24 | 1004.7 |
| 20260503223052 | 60 | 323 | 1.0 | 12.0 | 0.00 | 0.00 | 0.00 | 25 | 1004.7 |
| 20260503222549 | 60 | 0 | 4.0 | 12.0 | 0.00 | 0.00 | 0.00 | 24 | 1004.8 |
| 20260503222052 | 60 | 286 | 3.0 | 10.0 | 0.00 | 0.00 | 0.00 | 24 | 1004.8 |
| 20260503221552 | 60 | 0 | 1.0 | 8.0 | 0.00 | 0.00 | 0.00 | 24 | 1004.8 |
| 20260503221052 | 60 | 22 | 2.0 | 7.0 | 0.00 | 0.00 | 0.00 | 23 | 1004.8 |
| 20260503220552 | 61 | 281 | 2.0 | 10.0 | 0.00 | 0.00 | 0.00 | 23 | 1004.8 |
| 20260503220055 | 61 | 0 | 2.0 | 11.0 | 0.00 | 0.00 | 0.00 | 23 | 1004.8 |
| 20260503215551 | 61 | 313 | 3.0 | 11.0 | 0.00 | 0.00 | 0.00 | 23 | 1004.9 |
| 20260503215054 | 61 | 295 | 4.0 | 12.0 | 0.00 | 0.00 | 0.00 | 23 | 1004.9 |
| 20260503214555 | 62 | 313 | 4.0 | 12.0 | 0.00 | 0.00 | 0.00 | 22 | 1004.9 |
| 20260503214051 | 62 | 291 | 3.0 | 12.0 | 0.00 | 0.00 | 0.00 | 22 | 1004.8 |
| 20260503213549 | 62 | 298 | 3.0 | 10.0 | 0.00 | 0.00 | 0.00 | 22 | 1004.8 |
| 20260503213107 | 62 | 309 | 3.0 | 10.0 | 0.00 | 0.00 | 0.00 | 22 | 1004.9 |
| 20260503212556 | 62 | 276 | 2.0 | 10.0 | 0.00 | 0.00 | 0.00 | 23 | 1004.9 |
| 20260503212053 | 62 | 288 | 2.0 | 10.0 | 0.00 | 0.00 | 0.00 | 23 | 1004.9 |
| 20260503211554 | 62 | 304 | 3.0 | 11.0 | 0.00 | 0.00 | 0.00 | 22 | 1004.9 |
| 20260503211052 | 62 | 318 | 4.0 | 11.0 | 0.00 | 0.00 | 0.00 | 22 | 1004.9 |
| 20260503210552 | 61 | 350 | 3.0 | 18.0 | 0.00 | 0.00 | 0.00 | 23 | 1004.9 |
| 20260503210105 | 62 | 254 | 5.0 | 18.0 | 0.00 | 0.00 | 0.00 | 22 | 1005.0 |
| 20260503205549 | 62 | 355 | 3.0 | 13.0 | 0.00 | 0.00 | 0.00 | 22 | 1004.9 |
| 20260503205052 | 62 | 302 | 2.0 | 10.0 | 0.00 | 0.00 | 0.00 | 23 | 1005.0 |
| 20260503204559 | 62 | 259 | 3.0 | 14.0 | 0.00 | 0.00 | 0.00 | 23 | 1005.1 |
| 20260503204053 | 62 | 310 | 5.0 | 14.0 | 0.00 | 0.00 | 0.00 | 22 | 1005.1 |
| 20260503203550 | 62 | 315 | 4.0 | 13.0 | 0.00 | 0.00 | 0.00 | 23 | 1005.2 |
| 20260503203104 | 62 | 302 | 3.0 | 10.0 | 0.00 | 0.00 | 0.00 | 23 | 1005.1 |
| 20260503202551 | 62 | 315 | 2.0 | 10.0 | 0.00 | 0.00 | 0.00 | 24 | 1005.2 |
| 20260503202051 | 61 | 320 | 4.0 | 10.0 | 0.00 | 0.00 | 0.00 | 23 | 1005.2 |
| 20260503201554 | 61 | 338 | 3.0 | 10.0 | 0.00 | 0.00 | 0.00 | 24 | 1005.2 |
| 20260503201050 | 61 | 279 | 2.0 | 12.0 | 0.00 | 0.00 | 0.00 | 23 | 1005.2 |
| 20260503200552 | 61 | 294 | 3.0 | 13.0 | 0.00 | 0.00 | 0.00 | 24 | 1005.5 |
| 20260503200057 | 61 | 344 | 3.0 | 13.0 | 0.00 | 0.00 | 0.00 | 24 | 1005.6 |
| 20260503195551 | 61 | 298 | 4.0 | 13.0 | 0.00 | 0.00 | 0.00 | 24 | 1005.5 |
| 20260503195050 | 61 | 224 | 2.0 | 13.0 | 0.00 | 0.00 | 0.00 | 24 | 1005.5 |
| 20260503194556 | 61 | 5 | 5.0 | 13.0 | 0.00 | 0.00 | 0.00 | 24 | 1005.7 |
| 20260503194053 | 61 | 278 | 4.0 | 16.0 | 0.00 | 0.00 | 0.00 | 23 | 1005.9 |
| 20260503193549 | 61 | 218 | 3.0 | 16.0 | 0.00 | 0.00 | 0.00 | 24 | 1005.9 |
| 20260503193109 | 61 | 281 | 1.0 | 13.0 | 0.00 | 0.00 | 0.00 | 25 | 1006.0 |
| 20260503192550 | 61 | 327 | 3.0 | 15.0 | 0.00 | 0.00 | 0.00 | 25 | 1006.1 |
| 20260503192052 | 61 | 294 | 4.0 | 18.0 | 0.00 | 0.00 | 0.00 | 24 | 1006.2 |
| 20260503191556 | 61 | 291 | 2.0 | 18.0 | 0.00 | 0.00 | 0.00 | 26 | 1006.3 |
| 20260503191054 | 60 | 292 | 2.0 | 11.0 | 0.00 | 0.00 | 0.00 | 25 | 1006.4 |
| 20260503190550 | 61 | 275 | 3.0 | 11.0 | 0.00 | 0.00 | 0.00 | 25 | 1006.4 |
| 20260503190055 | 60 | 277 | 3.0 | 13.0 | 0.00 | 0.00 | 0.00 | 26 | 1006.5 |
| 20260503185551 | 60 | 5 | 4.0 | 13.0 | 0.00 | 0.00 | 0.00 | 26 | 1006.6 |
| 20260503185053 | 60 | 301 | 3.0 | 14.0 | 0.00 | 0.00 | 0.00 | 26 | 1006.5 |
| 20260503184605 | 60 | 215 | 6.0 | 14.0 | 0.00 | 0.00 | 0.00 | 26 | 1006.6 |
| 20260503184049 | 60 | 328 | 1.0 | 12.0 | 0.00 | 0.00 | 0.00 | 26 | 1006.7 |
| 20260503183550 | 60 | 299 | 4.0 | 12.0 | 0.00 | 0.00 | 0.00 | 26 | 1006.7 |
| 20260503183108 | 59 | 288 | 1.0 | 8.0 | 0.00 | 0.00 | 0.00 | 28 | 1006.9 |
| 20260503182554 | 60 | 290 | 3.0 | 11.0 | 0.00 | 0.00 | 0.00 | 26 | 1006.9 |
| 20260503182052 | 60 | 324 | 2.0 | 11.0 | 0.00 | 0.00 | 0.00 | 27 | 1007.0 |
| 20260503181607 | 60 | 339 | 3.0 | 9.0 | 0.00 | 0.00 | 0.00 | 26 | 1007.2 |
| 20260503181053 | 60 | 15 | 4.0 | 10.0 | 0.00 | 0.00 | 0.00 | 28 | 1007.3 |
| 20260503180550 | 60 | 273 | 2.0 | 10.0 | 0.00 | 0.00 | 0.00 | 27 | 1007.2 |
| 20260503180053 | 59 | 325 | 3.0 | 9.0 | 0.00 | 0.00 | 0.00 | 28 | 1007.2 |
| 20260503175552 | 59 | 336 | 2.0 | 12.0 | 0.00 | 0.00 | 0.00 | 29 | 1007.5 |
| 20260503175054 | 57 | 297 | 1.0 | 12.0 | 0.00 | 0.00 | 0.00 | 29 | 1007.5 |
| 20260503174556 | 57 | 234 | 3.0 | 10.0 | 0.00 | 0.00 | 0.00 | 29 | 1007.5 |
| 20260503174050 | 58 | 281 | 2.0 | 12.0 | 0.00 | 0.00 | 0.00 | 30 | 1007.6 |
| 20260503173550 | 59 | 276 | 1.0 | 12.0 | 0.00 | 0.00 | 0.00 | 29 | 1007.7 |
| 20260503173058 | 58 | 322 | 4.0 | 12.0 | 0.00 | 0.00 | 0.00 | 28 | 1007.8 |
| 20260503172550 | 58 | 272 | 3.0 | 12.0 | 0.00 | 0.00 | 0.00 | 29 | 1007.8 |
| 20260503172050 | 58 | 287 | 4.0 | 12.0 | 0.00 | 0.00 | 0.00 | 28 | 1007.9 |
| 20260503171552 | 57 | 282 | 2.0 | 10.0 | 0.00 | 0.00 | 0.00 | 29 | 1008.0 |
| 20260503171052 | 58 | 246 | 1.0 | 14.0 | 0.00 | 0.00 | 0.00 | 29 | 1008.1 |
| 20260503170553 | 57 | 242 | 2.0 | 14.0 | 0.00 | 0.00 | 0.00 | 28 | 1008.2 |
| 20260503150552 | 53 | 336 | 2.0 | 9.0 | 0.00 | 0.00 | 0.00 | 39 | 1009.7 |
| 20260503131052 | 48 | 287 | 2.0 | 6.0 | 0.00 | 0.00 | 0.00 | 50 | 1010.5 |
| 20260503130552 | 47 | 273 | 0.0 | 6.0 | 0.00 | 0.00 | 0.00 | 53 | 1010.5 |
| 20260503110552 | 41 | 0 | 1.0 | 7.0 | 0.00 | 0.00 | 0.00 | 65 | 1010.6 |
| 20260503090105 | 41 | 0 | 0.0 | 4.0 | 0.00 | 0.00 | 0.00 | 63 | 1010.3 |
| 20260503081622 | 42 | 313 | 1.0 | 5.0 | 0.00 | 0.00 | 0.00 | 62 | 1010.6 |
| 20260503081053 | 42 | 313 | 1.0 | 5.0 | 0.00 | 0.00 | 0.00 | 62 | 1010.6 |
| 20260503080553 | 42 | 313 | 1.0 | 4.0 | 0.00 | 0.00 | 0.00 | 62 | 1010.6 |
| 20260503080111 | 42 | 0 | 0.0 | 5.0 | 0.00 | 0.00 | 0.00 | 62 | 1010.6 |
| 20260503072552 | 42 | 288 | 0.0 | 4.0 | 0.00 | 0.00 | 0.00 | 62 | 1010.6 |
| 20260503072052 | 42 | 0 | 0.0 | 4.0 | 0.00 | 0.00 | 0.00 | 61 | 1010.7 |
| 20260503071554 | 42 | 287 | 0.0 | 4.0 | 0.00 | 0.00 | 0.00 | 61 | 1010.6 |
| 20260503071051 | 43 | 287 | 0.0 | 5.0 | 0.00 | 0.00 | 0.00 | 61 | 1010.6 |
| 20260503070555 | 43 | 287 | 0.0 | 5.0 | 0.00 | 0.00 | 0.00 | 60 | 1010.6 |
| 20260503055049 | 43 | 325 | 1.0 | 8.0 | 0.00 | 0.00 | 0.00 | 57 | 1010.9 |
| 20260503054555 | 43 | 299 | 1.0 | 8.0 | 0.00 | 0.00 | 0.00 | 57 | 1010.8 |
| 20260503054051 | 43 | 321 | 1.0 | 9.0 | 0.00 | 0.00 | 0.00 | 56 | 1010.9 |
| 20260503053551 | 43 | 323 | 2.0 | 9.0 | 0.00 | 0.00 | 0.00 | 56 | 1010.9 |
| 20260503053053 | 44 | 320 | 1.0 | 6.0 | 0.00 | 0.00 | 0.00 | 56 | 1011.0 |
| 20260503052551 | 44 | 315 | 0.0 | 6.0 | 0.00 | 0.00 | 0.00 | 55 | 1011.0 |
| 20260503052051 | 44 | 0 | 1.0 | 6.0 | 0.00 | 0.00 | 0.00 | 55 | 1011.0 |
| 20260503051557 | 44 | 0 | 1.0 | 8.0 | 0.00 | 0.00 | 0.00 | 55 | 1011.0 |
| 20260503051052 | 44 | 0 | 1.0 | 8.0 | 0.00 | 0.00 | 0.00 | 54 | 1011.1 |
| 20260503050552 | 44 | 335 | 2.0 | 5.0 | 0.00 | 0.00 | 0.00 | 54 | 1011.1 |
| 20260503050051 | 44 | 0 | 0.0 | 6.0 | 0.00 | 0.00 | 0.00 | 53 | 1011.2 |
| 20260503045552 | 44 | 306 | 0.0 | 7.0 | 0.00 | 0.00 | 0.00 | 53 | 1011.2 |
| 20260503045051 | 44 | 0 | 2.0 | 7.0 | 0.00 | 0.00 | 0.00 | 53 | 1011.2 |
| 20260503044604 | 44 | 342 | 1.0 | 6.0 | 0.00 | 0.00 | 0.00 | 53 | 1011.3 |
| 20260503044051 | 44 | 0 | 1.0 | 5.0 | 0.00 | 0.00 | 0.00 | 53 | 1011.3 |
| 20260503043552 | 44 | 302 | 2.0 | 5.0 | 0.00 | 0.00 | 0.00 | 53 | 1011.3 |
| 20260503043059 | 44 | 0 | 0.0 | 4.0 | 0.00 | 0.00 | 0.00 | 53 | 1011.3 |
| 20260503042554 | 45 | 307 | 0.0 | 5.0 | 0.00 | 0.00 | 0.00 | 52 | 1011.3 |
| 20260503042053 | 45 | 0 | 2.0 | 5.0 | 0.00 | 0.00 | 0.00 | 52 | 1011.3 |
| 20260503041558 | 45 | 306 | 1.0 | 8.0 | 0.00 | 0.00 | 0.00 | 51 | 1011.3 |
| 20260503041051 | 45 | 346 | 1.0 | 8.0 | 0.00 | 0.00 | 0.00 | 51 | 1011.4 |
| 20260503040552 | 45 | 329 | 0.0 | 6.0 | 0.00 | 0.00 | 0.00 | 51 | 1011.4 |
| 20260503035553 | 45 | 0 | 1.0 | 6.0 | 0.00 | 0.00 | 0.00 | 51 | 1011.4 |